Regional Weather Roundup
Issued by NWS Kansas City/Pleasant Hill, MO

Home | Current Version | Previous Version | Graphics & Text | Print | Product List | Glossary Off
Versions: 1 2 3 4 5 6 7 8 9 10 11 12 13 14 15 16 17 18 19 20 21 22 23 24 25 26 27 28

000
ASUS43 KEAX 240410
RWREAX

WEATHER ROUNDUP FOR EASTERN KANSAS AND NORTHWEST MISSOURI
NATIONAL WEATHER SERVICE KANSAS CITY/PLEASANT HILL MO
1100 PM CDT SAT JUL 23 2016

KSZ040-057-103>105-MOZ028-029-037-043-240500-
...KANSAS CITY METROPOLITAN AREA...

CITY           SKY/WX    TMP DP  RH WIND       PRES   REMARKS
K.C. INTL      CLOUDY    84  72  67 S13       29.87S
K.C. DOWNTOWN  CLOUDY    90  71  53 S6        29.86R HX  96
LEES SUMMIT    CLOUDY    88  72  58 S12       29.89S HX  94
OLATHE - IXD   PTCLDY    84  72  67 S9        29.89R
OLATHE - OJC   PTCLDY    83  71  67 S8        29.89S
LAWRENCE       CLOUDY    80  73  79 SE7       29.86S

$$

MOZ001>008-011>017-020>025-030>033-038>040-044>046-053-054-240500-
...NORTHERN AND CENTRAL MISSOURI...

CITY           SKY/WX    TMP DP  RH WIND       PRES   REMARKS
ST. JOSEPH     PTCLDY    84  73  69 S6        29.85R HX  90
MOSBY          CLOUDY    84  73  70 SE3       29.87S HX  91
WHITEMAN AFB   CLOUDY    84  77  79 S7        29.89S HX  93
CLINTON        CLOUDY    82  77  83 CALM      29.91S HX  91
SEDALIA        CLOUDY    82  76  81 S6        29.92S
WARSAW         NOT AVBL
CHILLICOTHE      N/A     86  77  74 S5        29.89R HX  97
KIRKSVILLE     CLOUDY    83  76  79 S3        29.92R HX  91

$$

MOZ041-047>049-056>058-063>065-088>090-097-240500-
...EASTERN AND SOUTHERN MISSOURI...

CITY           SKY/WX    TMP DP  RH WIND       PRES   REMARKS
ST. LOUIS INTL CLEAR     88  74  63 S10       29.94F HX  96
SPIRIT OF STL  CLEAR     85  76  74 S5        29.92S HX  94
COLUMBIA       CLEAR     83  77  82 SE7       29.92S HX  92
JEFFERSON CITY CLEAR     82  78  88 CALM      29.90S HX  91
ROLLA          PTCLDY    82  77  84 SE6       29.95R HX  90
OSAGE BEACH    CLEAR     82  79  90 SE3       29.94R HX  92
SPRINGFIELD    CLEAR     83  73  72 SE6       29.94S
BRANSON        PTCLDY    82  75  78 SE7       29.97S
JOPLIN         CLEAR     82  74  76 S6        29.91F
WEST PLAINS    CLOUDY    79  71  76 S5        30.01R

$$

IAZ060-094-KSZ022-034>040-054-083-096-NEZ052-066-093-240500-
...KANSAS...SOUTHEAST NEBRASKA AND IOWA...

CITY           SKY/WX    TMP DP  RH WIND       PRES   REMARKS
TOPEKA         CLEAR     87  70  56 S9        29.85S HX  92
MANHATTAN      CLOUDY    90  69  50 S16G25    29.82S HX  94
EMPORIA        CLOUDY    84  71  65 S10       29.89R
CHANUTE        MOCLDY    83  71  67 S8        29.90R
WICHITA        CLOUDY    89  68  49 S14       29.88R HX  93
OMAHA          CLOUDY    85  76  74 S8        29.80R HX  94
LINCOLN        CLEAR     85  72  65 SW3       29.83R HX  91
FALLS CITY     CLOUDY    83  73  72 S9        29.83R
LAMONI         CLOUDY    80  78  94 S7        29.87R
DES MOINES     PTCLDY    82  77  84 S8        29.82S HX  90

$$





USA.gov is the U.S. government's official web portal to all federal, state and local government web resources and services.